Weather in Vidnoye

Russia / Khabarovsk Krai     47°14′26″N   134°09′57″E
В апреле 2022 года жителям России запретили посещать сайт meteo.paraplan.net по решению Генеральной прокуратуры. Аудитория сайта уменьшилась в 10 раз. Владельцы сайта не видят смысла в поддержке погодного сервера в таких условиях. Сайт будет закрыт в октябре.
temp.,
°C
wind,
m/s
gust,
m/s
humid.,
%
clouds,
%
prec.,
mm/h
press.,
hPa
HPBL,
m
30 september, fri
fri3001:00+11sse3137280 0.1 1008303
04:00+13s4127790 0.3 1007314
07:00+10s2494100 0.0 100978
10:00+16sw3575100 0.0 1010505
13:00+19wsw3550100 0.0 10101003
16:00+19wnw235299 0.0 1008453
19:00+16se327796 0.0 100736
22:00+18s61674100 0.2 1004759
1 october, sat
sat101:00+12ene2397100 8.2 1007156
04:00+13wnw2398100 10.6 1008235
07:00+10n4895100 1.3 1012546
10:00+10nnw2590100 1.3 1016457
13:00+12nnw357220 0.1 1018808
16:00+13n2466100 0.1 1019583
19:00+12ne116754 0.0 102114
22:00+8ene11846 0.0 102210
2 october, sun
sun201:00+7sse118687 0.0 102311
04:00+6se118928 0.0 102212
07:00+6se2289100 0.0 102328
10:00+10se477599 0.0 1022300
13:00+15sse696287 0.0 1019780
16:00+17ssw475855 0.0 10181064
19:00+13se228265 0.0 101726
22:00+14s411869 0.0 1016444
3 october, mon
mon301:00+14s6138876 0.0 1014474
04:00+13s61290100 0.0 1014474
07:00+14s61290100 0.3 1014553
10:00+15s5987100 0.5 1013703
13:00+16s4884100 0.1 1011630
16:00+17ssw488596 0.5 1009802
19:00+13wnw3697100 0.5 1008425
22:00+9nw3695100 3.0 1009475
4 october, tue
tue401:00+8nw4896100 4.1 1008603
04:00+5wnw5795100 8.6 1008765
07:00+3w5985100 2.5 1009622
10:00+3wnw797515 2.6 1009946
13:00+5wnw8105692 0.0 10081670
16:00+5wnw71158100 0.1 10081776
19:00+3wnw6126495 0.1 10091226
22:00+2wnw6126853 0.1 1010957